SZ-17 MODULE

Last updated on Tue Dec 17 2024 00:02:10 GMT+0000 (Coordinated Universal Time)

1 59624U 23164C 24351.53756109 .01762697 79721-5 37499-3 0 9997 2 59624 41.4628 19.2985 0006436 97.0979 37.2637 16.29725496 36409

Satellite not in orbit